User: anonymous   Login
Location: Unspecified
(0.0000°N, 0.0000°E)
Time: 08:09:00
(UTC+00:00)
Language:

CUBESAT XI-V - Orbit

View from above orbital plane
View from above orbital plane
View from above satellite
View from above satellite

Ground track
Ground track

The orbit data is extracted from the following two-line orbital elements,

1 28895U 05043F   21168.63096057  .00000174  00000-0  42317-4 0  9991
2 28895  98.0591 301.8652 0016206 205.5159 154.5245 14.63921126834032
Epoch (UTC): 17 June 2021 15:08:34
Eccentricity: 0.0016206
inclination: 98.0591°
perigee height: 669 km
apogee height: 692 km
right ascension of ascending node: 301.8652°
argument of perigee: 205.5159°
revolutions per day: 14.63921126
mean anomaly at epoch: 154.5245°
orbit number at epoch: 83403

The dashed part of the orbit path shows where the satellite is in the earth's shadow,  

DLR